This is the latest recevied weather packets stored in our database for station/object VE1UHF-4. If no packets are shown the sender has not sent any weather packets the latest 10 day(s).
| Time | Temp. | Humidity | Pressure | Rain* | Wind** | Luminosity | Snow |
|---|---|---|---|---|---|---|---|
| 1778088890 | 23.33° C | 86% | 1006.9 hPa | 0 mm | - | - | - |
| 1778087989 | 23.33° C | 88% | 1006.7 hPa | 0 mm | - | - | - |
| 1778087088 | 22.22° C | 88% | 1007 hPa | 0 mm | - | - | - |
| 1778086189 | 21.67° C | 89% | 1006.9 hPa | 0 mm | - | - | - |
| 1778085287 | 21.11° C | 89% | 1007.1 hPa | 0 mm | - | - | - |
| 1778084387 | 20.56° C | 89% | 1007.2 hPa | 0 mm | - | - | - |
| 1778083486 | 19.44° C | 88% | 1007.2 hPa | 0 mm | - | - | - |
| 1778082586 | 18.89° C | 87% | 1007.2 hPa | 0 mm | - | - | - |
| 1778081685 | 18.33° C | 86% | 1007.4 hPa | 0 mm | - | - | - |
| 1778080785 | 18.33° C | 86% | 1007.6 hPa | 0 mm | - | - | - |
| 1778079884 | 17.78° C | 86% | 1007.7 hPa | 0 mm | - | - | - |
| 1778078984 | 17.78° C | 86% | 1008.1 hPa | 0 mm | - | - | - |
| 1778078083 | 17.78° C | 85% | 1008 hPa | 0 mm | - | - | - |
| 1778077183 | 17.22° C | 85% | 1007.9 hPa | 0 mm | - | - | - |
| 1778076282 | 17.22° C | 85% | 1007.7 hPa | 0 mm | - | - | - |
| 1778075382 | 17.22° C | 85% | 1007.8 hPa | 0 mm | - | - | - |
| 1778073580 | 17.22° C | 85% | 1008.2 hPa | 0 mm | - | - | - |
| 1778071780 | 16.67° C | 85% | 1007.6 hPa | 0 mm | - | - | - |
| 1778070879 | 16.67° C | 84% | 1007.4 hPa | 0 mm | - | - | - |
| 1778069978 | 16.67° C | 84% | 1007.4 hPa | 0 mm | - | - | - |
| 1778069078 | 16.67° C | 84% | 1007.4 hPa | 0 mm | - | - | - |
| 1778068177 | 16.11° C | 85% | 1007.4 hPa | 0 mm | - | - | - |
| 1778067277 | 16.11° C | 84% | 1007.1 hPa | 0 mm | - | - | - |
| 1778066376 | 16.11° C | 84% | 1007.4 hPa | 0 mm | - | - | - |
| 1778065476 | 15.56° C | 84% | 1007.1 hPa | 0 mm | - | - | - |
* Rain since midnight (hover to see other rain measurements)
** Current wind speed in m/s (hover to see current wind gust speed)